Weather History for Presidio Lely Intl, Presidio,, TX

Change the Weather History Date:

Saturday, January 4, 2014

  Actual Average (KMRF) Record (KMRF)
Temperature  
Mean Temperature 54 °F -  
Max Temperature 68 °F 56 °F 71 °F (2005)
Min Temperature 40 °F 25 °F 10 °F (1999)
Degree Days  
Heating Degree Days 11    
Growing Degree Days 4 (Base 50)    
Moisture  
Dew Point 33 °F    
Average Humidity 44    
Maximum Humidity 64    
Minimum Humidity 29    
Precipitation  
Precipitation 0.00 in - - ()
Sea Level Pressure  
Sea Level Pressure 29.94 in    
Wind  
Wind Speed 5 mph (NW)    
Max Wind Speed 12 mph    
Max Gust Speed -    
Visibility 10 miles    
Events      
Averages and records for this station are not official NWS values.
T = Trace of Precipitation, MM = Missing Value Source: NWS Daily Summary

Daily Weather History Graph

Daily Weather History Graph

Search for Another Location

Airport:

Trip Planner

Search our weather history database for the weather conditions in past years. The results will help you decide how hot, cold, wet, or windy it might be!

Date:

Astronomy

Jan. 04, 2014 Rise Set
Actual Time 7:53 AM CST 6:11 PM CST
Civil Twilight 7:27 AM CST 6:38 PM CST
Nautical Twilight 6:57 AM CST 7:07 PM CST
Astronomical Twilight 6:28 AM CST 7:36 PM CST
Moon 10:18 AM CST (1/4) 10:14 PM CST (1/4)
Length of Visible Light 11h 10m
Length of Day
10h 18m
Waxing Crescent, 15% of the Moon is Illuminated
Jan 4
Waxing Crescent
Jan 7
First Quarter
Jan 15
Full
Jan 23
Last Quarter
Jan 30
New

Hourly Weather History & Observations

Time (CST) Temp. Windchill Dew Point Humidity Pressure Visibility Wind Dir Wind Speed Gust Speed Precip Events Conditions
12:15 AM 50.0 °F - 30.7 °F 48% 29.99 in 10.0 mi North 11.5 mph - N/A   Clear
12:35 AM 49.6 °F - 30.6 °F 48% 29.99 in 10.0 mi North 8.1 mph - N/A   Clear
12:55 AM 48.2 °F - 30.2 °F 50% 30.00 in 10.0 mi Calm Calm - N/A   Clear
1:15 AM 45.5 °F - 30.0 °F 55% 30.00 in 10.0 mi Calm Calm - N/A   Clear
1:35 AM 46.8 °F - 30.2 °F 53% 30.00 in 10.0 mi North 5.8 mph - N/A   Clear
1:55 AM 46.6 °F - 30.2 °F 53% 29.99 in 10.0 mi North 6.9 mph - N/A   Clear
2:15 AM 46.6 °F - 30.2 °F 53% 29.99 in 10.0 mi North 3.5 mph - N/A   Clear
2:35 AM 46.6 °F - 30.2 °F 53% 29.99 in 10.0 mi Calm Calm - N/A   Clear
2:55 AM 44.6 °F 41.4 °F 30.0 °F 57% 29.98 in 10.0 mi North 5.8 mph - N/A   Clear
3:15 AM 44.6 °F 41.4 °F 30.0 °F 57% 29.99 in 10.0 mi North 5.8 mph - N/A   Clear
3:35 AM 44.1 °F 40.1 °F 30.0 °F 58% 29.99 in 10.0 mi North 6.9 mph - N/A   Clear
3:55 AM 43.7 °F 39.7 °F 30.0 °F 59% 29.99 in 10.0 mi North 6.9 mph - N/A   Clear
4:15 AM 44.6 °F 40.7 °F 30.0 °F 57% 29.99 in 10.0 mi North 6.9 mph - N/A   Clear
4:35 AM 44.4 °F 40.0 °F 30.0 °F 57% 29.99 in 10.0 mi North 8.1 mph - N/A   Clear
4:55 AM 44.6 °F 40.2 °F 30.0 °F 57% 29.98 in 10.0 mi North 8.1 mph - N/A   Clear
5:15 AM 44.6 °F 41.4 °F 30.0 °F 57% 29.99 in 10.0 mi North 5.8 mph - N/A   Clear
5:35 AM 41.5 °F - 29.7 °F 63% 29.99 in 10.0 mi Calm Calm - N/A   Clear
5:55 AM 40.8 °F 36.9 °F 29.5 °F 64% 29.99 in 10.0 mi North 5.8 mph - N/A   Clear
6:15 AM 42.3 °F 40.5 °F 29.7 °F 61% 29.99 in 10.0 mi NNE 3.5 mph - N/A   Clear
6:35 AM 42.4 °F 39.6 °F 29.8 °F 61% 29.99 in 10.0 mi North 4.6 mph - N/A   Clear
6:55 AM 42.4 °F - 29.8 °F 61% 29.99 in 10.0 mi Calm Calm - N/A   Clear
7:15 AM 42.8 °F 40.1 °F 30.2 °F 61% 30.00 in 10.0 mi North 4.6 mph - N/A   Clear
7:35 AM 42.4 °F 37.5 °F 30.2 °F 62% 30.00 in 10.0 mi North 8.1 mph - N/A   Clear
7:55 AM 42.8 °F 38.6 °F 30.6 °F 62% 30.00 in 10.0 mi North 6.9 mph - N/A   Clear
8:15 AM 43.5 °F 40.1 °F 31.3 °F 62% 30.00 in 10.0 mi NNE 5.8 mph - N/A   Clear
8:35 AM 44.6 °F 43.1 °F 31.6 °F 60% 30.01 in 10.0 mi North 3.5 mph - N/A   Clear
8:55 AM 45.7 °F - 31.5 °F 58% 30.02 in 10.0 mi Calm Calm - N/A   Clear
9:15 AM 46.4 °F 45.2 °F 32.0 °F 57% 30.02 in 10.0 mi NE 3.5 mph - N/A   Clear
9:35 AM 49.3 °F - 33.1 °F 54% 30.02 in 10.0 mi NE 3.5 mph - N/A   Clear
9:55 AM 53.8 °F - 34.9 °F 49% 30.02 in 10.0 mi ENE 3.5 mph - N/A   Clear
10:15 AM 55.0 °F - 35.2 °F 47% 30.02 in 10.0 mi Calm Calm - N/A   Clear
10:35 AM 57.2 °F - 36.5 °F 46% 30.02 in 10.0 mi East 3.5 mph - N/A   Clear
10:55 AM 57.2 °F - 36.0 °F 45% 30.01 in 10.0 mi East 3.5 mph - N/A   Clear
11:15 AM 58.1 °F - 35.8 °F 43% 30.00 in 10.0 mi Calm Calm - N/A   Clear
11:35 AM 59.9 °F - 36.1 °F 41% 29.99 in 10.0 mi Calm Calm - N/A   Clear
11:55 AM 59.4 °F - 36.5 °F 43% 29.98 in 10.0 mi Calm Calm - N/A   Clear
12:15 PM 59.0 °F - 35.4 °F 41% 29.97 in 10.0 mi Calm Calm - N/A   Clear
12:35 PM 60.3 °F - 35.6 °F 40% 29.96 in 10.0 mi Calm Calm - N/A   Clear
12:55 PM 61.7 °F - 36.5 °F 39% 29.95 in 10.0 mi Calm Calm - N/A   Clear
1:15 PM 63.3 °F - 35.8 °F 36% 29.93 in 10.0 mi Calm Calm - N/A   Clear
1:35 PM 65.7 °F - 35.8 °F 33% 29.91 in 10.0 mi Calm Calm - N/A   Clear
1:55 PM 67.5 °F - 35.6 °F 31% 29.90 in 10.0 mi Calm Calm - N/A   Clear
2:15 PM 67.5 °F - 35.2 °F 30% 29.89 in 10.0 mi Calm Calm - N/A   Clear
2:35 PM 67.5 °F - 34.9 °F 30% 29.89 in 10.0 mi Calm Calm - N/A   Clear
2:55 PM 67.8 °F - 34.9 °F 30% 29.89 in 10.0 mi Calm Calm - N/A   Clear
3:15 PM 68.0 °F - 35.1 °F 30% 29.89 in 10.0 mi SW 4.6 mph - N/A   Clear
3:35 PM 68.4 °F - 35.4 °F 30% 29.88 in 10.0 mi WSW 3.5 mph - N/A   Clear
3:55 PM 68.4 °F - 35.1 °F 29% 29.88 in 10.0 mi WSW 3.5 mph - N/A   Clear
4:15 PM 68.5 °F - 35.1 °F 29% 29.88 in 10.0 mi SSW 3.5 mph - N/A   Clear
4:35 PM 68.2 °F - 35.6 °F 30% 29.88 in 10.0 mi Calm Calm - N/A   Clear
4:55 PM 67.6 °F - 35.8 °F 31% 29.88 in 10.0 mi South 3.5 mph - N/A   Clear
5:15 PM 67.6 °F - 35.8 °F 31% 29.88 in 10.0 mi SSW 3.5 mph - N/A   Clear
5:35 PM 67.6 °F - 35.6 °F 31% 29.88 in 10.0 mi SSW 5.8 mph - N/A   Clear
5:55 PM 65.7 °F - 35.8 °F 33% 29.88 in 10.0 mi SSW 5.8 mph - N/A   Clear
6:15 PM 65.3 °F - 35.6 °F 33% 29.88 in 10.0 mi SSW 5.8 mph - N/A   Clear
6:35 PM 65.7 °F - 35.6 °F 33% 29.88 in 10.0 mi SSW 4.6 mph - N/A   Clear
6:55 PM 65.3 °F - 35.6 °F 33% 29.88 in 10.0 mi SSW 5.8 mph - N/A   Clear
7:15 PM 64.9 °F - 35.2 °F 33% 29.89 in 10.0 mi South 4.6 mph - N/A   Clear
7:35 PM 64.4 °F - 35.1 °F 34% 29.88 in 10.0 mi SSW 4.6 mph - N/A   Clear
7:55 PM 64.8 °F - 34.9 °F 33% 29.88 in 10.0 mi SSW 4.6 mph - N/A   Clear
8:15 PM 64.4 °F - 34.3 °F 33% 29.88 in 10.0 mi SSW 5.8 mph - N/A   Clear
8:35 PM 64.9 °F - 34.0 °F 32% 29.88 in 10.0 mi SSW 9.2 mph - N/A   Clear
8:55 PM 65.3 °F - 33.3 °F 30% 29.88 in 10.0 mi SSW 6.9 mph - N/A   Clear
9:15 PM 65.1 °F - 33.1 °F 30% 29.89 in 10.0 mi SSW 4.6 mph - N/A   Clear
9:35 PM 63.9 °F - 32.9 °F 31% 29.89 in 10.0 mi South 3.5 mph - N/A   Clear
9:55 PM 61.2 °F - 33.3 °F 35% 29.89 in 10.0 mi Calm Calm - N/A   Clear
10:15 PM 58.3 °F - 34.5 °F 41% 29.89 in 10.0 mi Calm Calm - N/A   Clear
10:35 PM 58.6 °F - 34.2 °F 40% 29.88 in 10.0 mi Calm Calm - N/A   Clear
10:55 PM 59.2 °F - 33.8 °F 38% 29.88 in 10.0 mi Calm Calm - N/A   Clear
11:15 PM 61.3 °F - 33.8 °F 36% 29.89 in 10.0 mi North 3.5 mph - N/A   Clear
11:35 PM 61.5 °F - 33.1 °F 34% 29.88 in 10.0 mi Calm Calm - N/A   Clear
11:55 PM 60.6 °F - 33.1 °F 36% 29.88 in 10.0 mi SW 4.6 mph - N/A   Clear